Terug naar catalogus

COSMOS 2251 DEB

ActiefLEO
NORAD 33768·DEBRIS·🇷🇺 Russia

Gelanceerd Jun 16, 1993 vanaf Plesetsk Cosmodrome

Loading…

Volgende Passages (komende 24 uur)

TLE

VersSource: Space-Track

Epoch: Sep 14, 2026, 15:55 UTC

1 33768U 93036R   26257.66387212  .00000081  00000-0  92123-4 0  9995
2 33768  74.0685 134.4357 0367179 231.0268 156.1330 13.58640387870437

Volg COSMOS 2251 DEB in realtime met AllMySat

Download on the App Store